PE1EDR Weather Reports


time (UTC)temp
C
wind
direction
speed
KPH
gust
KPH
rain 1hr
cm
rain 24hr
cm
rain mn
cm
humidity
%
barometer
mb
20260503004814 13 95 1.6 6.4 0.00 0.23 0.00 94 1010.2
20260503003809 13 69 1.6 0.0 0.00 0.00 0.00 94 1010.5
20260503002805 13 67 3.2 9.7 0.00 0.23 0.00 94 1010.3
20260503002308 13 54 1.6 4.8 0.00 0.23 0.00 94 1010.8
20260503001808 13 62 1.6 6.4 0.00 0.23 0.00 94 1011.2
20260503001308 13 43 0.0 6.4 0.00 0.23 0.00 94 1011.4
20260503000814 13 57 0.0 0.0 0.00 0.00 0.00 93 1011.7
20260502235257 14 325 0.0 3.2 0.00 0.23 0.00 93 1012.3
20260502234742 14 316 1.6 9.7 0.00 0.23 0.00 92 1012.4
20260502234236 14 284 1.6 9.7 0.00 0.23 0.00 92 1012.6
20260502232741 13 344 1.6 0.0 0.00 0.00 0.00 91 1012.7
20260502231604 13 230 3.2 17.7 0.00 0.23 0.05 92 1013.2
20260502231110 13 244 1.6 17.7 0.00 0.23 0.00 92 1013.2
20260502230609 13 31 1.6 4.8 0.00 0.23 0.00 91 1012.2
20260502230104 13 69 1.6 8.0 0.00 0.23 0.00 91 1011.9
20260502225600 13 92 1.6 0.0 0.00 0.00 0.00 91 1012.0
20260502224316 13 84 1.6 9.7 0.00 0.23 0.00 91 1012.1
20260502223807 13 129 1.6 9.7 0.00 0.23 0.00 91 1012.1
20260502223313 13 85 1.6 9.7 0.00 0.23 0.00 91 1012.1
20260502222804 14 84 1.6 6.4 0.00 0.23 0.00 91 1012.1
20260502221807 14 132 0.0 3.2 0.00 0.23 0.00 90 1012.5
20260502221259 14 132 1.6 8.0 0.00 0.23 0.00 90 1012.6
20260502220801 14 153 3.2 11.3 0.00 0.23 0.00 90 1012.5
20260502220243 14 132 3.2 11.3 0.00 0.23 0.00 90 1012.5
20260502215224 14 72 1.6 6.4 0.00 0.23 0.05 90 1012.0
20260502214724 14 57 1.6 0.0 0.00 0.00 0.00 90 1011.9
20260502214404 14 61 1.6 8.0 0.00 0.23 0.05 90 1011.9
20260502213904 14 88 1.6 11.3 0.00 0.23 0.05 90 1011.9
20260502213404 14 48 1.6 11.3 0.00 0.23 0.05 90 1012.0
20260502211855 14 167 1.6 4.8 0.00 0.23 0.05 89 1012.4
20260502211343 14 59 1.6 8.0 0.00 0.23 0.05 89 1012.4
20260502210833 14 72 1.6 8.0 0.00 0.23 0.05 89 1012.3
20260502210333 14 62 1.6 8.0 0.00 0.23 0.05 88 1012.4
20260502205331 14 46 1.6 6.4 0.00 0.23 0.05 87 1012.4
20260502203837 15 53 0.0 6.4 0.00 0.23 0.05 87 1012.6
20260502203334 15 53 1.6 6.4 0.00 0.23 0.05 87 1012.7
20260502202833 15 48 0.0 4.8 0.00 0.23 0.05 87 1012.8
20260502202316 15 50 1.6 4.8 0.00 0.23 0.05 86 1012.8
20260502201821 15 28 3.2 0.0 0.00 0.00 0.00 86 1012.9
20260502201146 15 50 1.6 8.0 0.00 0.23 0.05 85 1013.1
20260502200147 15 54 0.0 6.4 0.00 0.23 0.05 84 1013.2
20260502195137 15 48 0.0 3.2 0.00 0.23 0.05 83 1013.2
20260502194136 15 50 0.0 3.2 0.00 0.23 0.05 82 1013.3
20260502193632 16 50 1.6 8.0 0.00 0.23 0.05 81 1013.2
20260502193137 16 49 3.2 9.7 0.00 0.23 0.05 81 1013.2
20260502192632 16 36 3.2 9.7 0.00 0.23 0.05 80 1013.1
20260502191632 16 56 3.2 8.0 0.00 0.23 0.05 78 1013.1
20260502190626 16 27 4.8 12.9 0.00 0.23 0.05 75 1013.0
20260502185628 17 41 3.2 8.0 0.00 0.23 0.05 71 1013.0
20260502185140 17 24 1.6 0.0 0.00 0.00 0.00 70 1013.0
20260502184304 17 355 3.2 11.3 0.00 0.23 0.05 67 1013.0
20260502183803 18 14 3.2 11.3 0.00 0.23 0.05 65 1013.0
20260502182305 18 347 3.2 11.3 0.00 0.23 0.05 62 1012.9
20260502181803 18 15 3.2 9.7 0.00 0.23 0.05 60 1013.0
20260502181250 18 325 4.8 9.7 0.00 0.23 0.05 59 1013.0
20260502180756 19 39 4.8 9.7 0.00 0.23 0.05 58 1013.0
20260502170211 21 342 6.4 14.5 0.00 0.23 0.05 54 1013.6
20260502164155 21 316 4.8 9.7 0.00 0.23 0.05 55 1013.7
20260502163658 21 333 6.4 0.0 0.00 0.00 0.00 55 1013.7
20260502163034 21 344 6.4 14.5 0.00 0.25 0.08 57 1013.9
20260502162517 21 327 6.4 14.5 0.00 0.25 0.05 60 1013.8
20260502162034 21 348 6.4 0.0 0.00 0.00 0.00 60 1013.9
20260502161053 21 5 8.0 16.1 0.00 0.25 0.05 66 1013.9
20260502160559 22 349 8.0 0.0 0.00 0.00 0.00 69 1013.9
20260502152217 22 278 8.0 14.5 0.15 0.30 0.05 66 1014.1
20260502151725 22 355 8.0 0.0 0.00 0.00 0.00 67 1014.1
20260502150839 23 290 9.7 17.7 0.15 0.30 0.05 67 1014.3
20260502150333 23 306 8.0 16.1 0.15 0.30 0.05 67 1014.3
20260502130540 23 344 8.0 0.0 0.00 0.00 0.00 67 1015.2
20260502123235 23 263 9.7 24.1 0.00 0.61 0.53 62 1015.4
20260502122734 23 280 6.4 20.9 0.00 0.61 0.33 62 1015.4
20260502121246 23 209 9.7 20.9 0.00 0.61 0.13 62 1015.5
20260502120739 23 277 9.7 20.9 0.00 0.61 0.05 62 1015.6
20260502120244 23 236 8.0 25.7 0.00 0.61 0.03 62 1015.6
20260502115738 23 309 8.0 25.7 0.00 0.61 0.00 62 1015.6
20260502115241 23 302 9.7 0.0 0.00 0.00 0.00 62 1015.7
20260502114029 23 305 6.4 16.1 0.00 0.61 0.05 63 1015.8
20260502113535 22 293 4.8 17.7 0.00 0.61 0.03 64 1015.9
20260502113031 23 238 6.4 17.7 0.00 0.61 0.03 64 1016.0
20260502112533 22 302 4.8 14.5 0.00 0.61 0.03 64 1016.1
20260502112028 22 323 4.8 14.5 0.00 0.61 0.00 65 1016.1
20260502111533 22 290 4.8 16.1 0.00 0.61 0.00 65 1016.1
20260502111035 21 336 4.8 16.1 0.00 0.61 0.00 66 1016.1
20260502110247 22 282 3.2 11.3 0.00 0.61 0.00 66 1016.2
20260502105746 21 248 3.2 11.3 0.00 0.61 0.00 66 1016.1
20260502104739 22 293 6.4 16.1 0.00 0.66 0.00 64 1016.2
20260502104254 22 248 6.4 0.0 0.00 0.00 0.00 65 1016.2
20260502103550 22 301 4.8 16.1 0.05 0.69 0.05 64 1016.2
20260502103051 21 310 4.8 14.5 0.03 0.69 0.03 67 1016.1
20260502102550 21 280 4.8 16.1 0.03 0.71 0.03 68 1016.2
20260502102051 20 295 1.6 16.1 0.00 0.71 0.03 67 1016.3
20260502101049 20 257 0.0 4.8 0.00 0.71 0.00 69 1016.1
20260502100549 19 270 0.0 4.8 0.00 0.71 0.00 68 1016.1
20260502090139 15 197 0.0 0.0 0.00 0.74 0.00 74 1016.4
20260502071404 17 234 0.0 4.8 0.03 1.04 0.00 58 1016.4
20260502070904 17 253 0.0 3.2 0.03 1.04 0.00 58 1016.4
20260502070402 17 253 0.0 4.8 0.03 1.04 0.00 58 1016.5
20260502065852 17 210 0.0 4.8 0.00 1.02 0.03 56 1016.6
20260502065332 17 215 0.0 4.8 0.00 1.02 0.03 56 1016.5
20260502064837 17 225 0.0 9.7 0.00 1.02 0.03 56 1016.5
20260502063836 17 221 0.0 4.8 0.00 1.02 0.00 58 1016.5
20260502063328 17 221 0.0 4.8 0.00 1.02 0.00 59 1016.4
20260502061536 16 233 0.0 4.8 0.00 1.02 0.00 62 1016.3
20260502061037 15 186 0.0 4.8 0.00 1.02 0.00 63 1016.3
20260502060536 15 211 0.0 1.6 0.00 0.00 0.00 65 1016.3
20260502055933 15 211 0.0 1.6 0.00 1.02 0.00 66 1016.4
20260502055420 14 195 0.0 0.0 0.00 1.02 0.00 66 1016.4
20260502054911 14 192 0.0 0.0 0.00 1.02 0.00 67 1016.4
20260502054407 14 166 0.0 0.0 0.00 1.02 0.00 66 1016.3
20260502053904 13 165 0.0 0.0 0.00 1.02 0.00 67 1016.3
20260502053357 13 165 0.0 0.0 0.00 1.02 0.00 67 1016.2
20260502052850 13 166 0.0 0.0 0.00 1.02 0.00 68 1016.3
20260502051833 12 162 0.0 0.0 0.00 1.02 0.00 69 1016.2
20260502051332 12 162 0.0 0.0 0.00 1.02 0.00 70 1016.2
20260502050323 12 163 0.0 0.0 0.00 1.02 0.00 70 1016.3
20260502045804 12 173 0.0 0.0 0.00 1.02 0.00 70 1016.3
20260502045301 12 165 0.0 0.0 0.00 1.02 0.00 71 1016.3
20260502044800 12 165 0.0 0.0 0.00 1.02 0.00 71 1016.3
20260502043739 11 165 0.0 0.0 0.00 1.02 0.00 71 1016.3
20260502043233 11 165 0.0 0.0 0.00 1.02 0.00 72 1016.3
20260502042732 11 165 0.0 0.0 0.00 1.02 0.00 72 1016.3
20260502042231 11 165 0.0 0.0 0.00 1.02 0.00 72 1016.3
20260502041715 11 165 0.0 0.0 0.00 1.02 0.00 71 1016.4
20260502041206 11 165 0.0 0.0 0.00 1.02 0.00 70 1016.4
20260502040157 12 165 0.0 0.0 0.00 1.02 0.00 70 1016.4
20260502035656 12 165 0.0 0.0 0.00 1.02 0.00 70 1016.5
20260502035156 12 165 0.0 0.0 0.00 1.02 0.00 69 1016.6
20260502034632 12 165 0.0 0.0 0.00 1.02 0.00 69 1016.6
20260502034107 12 165 0.0 0.0 0.00 1.02 0.00 69 1016.6
20260502033606 12 165 0.0 0.0 0.00 1.02 0.00 68 1016.7
20260502033059 12 165 0.0 0.0 0.00 1.02 0.00 67 1016.8
20260502032555 12 165 0.0 0.0 0.00 1.02 0.00 67 1016.7
20260502032041 12 165 0.0 0.0 0.00 1.02 0.00 67 1016.7
20260502031537 12 165 0.0 0.0 0.00 1.02 0.00 67 1016.7
20260502031032 12 165 0.0 0.0 0.00 1.02 0.00 67 1016.8
20260502030532 12 169 0.0 0.0 0.00 1.02 0.00 67 1016.8
20260502030032 12 175 0.0 0.0 0.00 1.02 0.00 66 1016.9
20260502025532 12 188 0.0 1.6 0.00 1.02 0.00 66 1016.8
20260502025032 12 211 0.0 1.6 0.00 1.02 0.00 66 1016.9
20260502024532 13 211 0.0 3.2 0.00 1.02 0.00 65 1016.9
20260502023531 13 211 0.0 0.0 0.00 1.02 0.00 64 1016.9
20260502023015 13 211 0.0 0.0 0.00 1.02 0.00 64 1016.9
20260502022505 13 211 0.0 0.0 0.00 1.02 0.00 64 1016.9
20260502022005 13 211 0.0 0.0 0.00 1.02 0.00 64 1017.0
20260502021505 13 211 0.0 0.0 0.00 1.02 0.00 63 1017.1
20260502020506 13 211 0.0 0.0 0.00 1.02 0.00 63 1017.2
20260502020006 13 211 0.0 0.0 0.00 1.02 0.00 64 1017.1
20260502015009 13 212 0.0 0.0 0.00 1.02 0.00 64 1017.2
20260502014004 13 212 0.0 0.0 0.00 1.02 0.00 63 1017.3
20260502013446 13 212 0.0 0.0 0.00 1.02 0.00 63 1017.3
20260502012939 13 212 0.0 0.0 0.00 1.02 0.00 63 1017.3
20260502012414 13 212 0.0 0.0 0.00 1.02 0.00 63 1017.4
20260502011909 13 212 0.0 0.0 0.00 1.02 0.00 62 1017.5
20260502011359 13 212 0.0 0.0 0.00 1.02 0.00 62 1017.5
20260502010851 14 212 0.0 0.0 0.00 1.02 0.00 61 1017.6
20260502010357 13 212 0.0 0.0 0.00 1.02 0.00 61 1017.6
20260502005837 14 212 0.0 0.0 0.00 1.02 0.00 62 1017.8
20260502005312 14 213 0.0 0.0 0.00 1.02 0.00 62 1017.9